Location: Alpha Ridge Park
(39.3209°N, 76.9128°W)
Time: 05:33:20
(UTC-04:00)

Vanguard 2 Rocket - Visible Passes

Search period start: 26 May 2019 00:00
Search period end: 05 June 2019 00:00
Orbit: 555 x 3326 km, 32.9° (Epoch: 25 May)

Date Brightness Start Highest point End Pass type
(mag) Time Alt. Az. Time Alt. Az. Time Alt. Az.
26 May 10.6 02:27:33 14° SSE 02:34:43 17° SE 02:44:54 10° ESE visible
26 May 10.0 04:33:18 11° SSW 04:50:48 41° SSE 05:04:52 10° E visible
27 May 10.2 03:36:45 18° SSW 03:49:24 34° SE 04:03:53 10° E visible
28 May 10.3 02:40:07 20° S 02:48:09 26° SE 03:01:54 10° E visible
28 May 9.9 04:45:53 11° SW 05:04:36 51° SSE 05:19:29 10° E visible
29 May 10.5 01:43:26 17° SSE 01:47:09 18° SE 01:58:13 10° E visible
29 May 10.0 03:49:12 20° SSW 04:02:59 43° SSE 04:18:47 10° E visible
30 May 10.7 00:46:42 10° SE 00:46:42 10° SE 00:48:15 10° ESE visible
30 May 10.1 02:52:27 25° S 03:01:31 35° SE 03:17:22 10° E visible
30 May 9.7 04:58:41 10° SW 05:18:27 60° SSE 05:33:53 10° E visible
31 May 10.2 01:55:39 24° SSE 02:00:21 27° SE 02:14:56 10° E visible
31 May 9.8 04:01:23 19° SW 04:16:38 53° SSE 04:33:19 10° E visible
01 Jun 10.4 00:58:47 18° SE 00:59:33 18° SE 01:10:48 10° E visible
01 Jun 9.9 03:04:32 28° SSW 03:14:57 45° SSE 03:32:10 10° E visible
01 Jun 9.7 05:12:16 10° WSW 05:32:23 66° SSE 05:48:10 10° E visible
02 Jun 9.9 02:07:37 31° S 02:13:33 36° SE 02:30:17 10° E visible
02 Jun 9.7 04:13:21 16° SW 04:30:24 61° SSE 04:47:40 10° E visible
03 Jun 10.1 01:10:39 26° SE 01:12:34 27° SE 01:27:23 10° E visible
03 Jun 9.8 03:16:23 27° SW 03:28:29 54° SSE 03:46:38 10° E visible
04 Jun 10.4 00:13:38 17° SE 00:13:38 17° SE 00:22:46 10° E visible
04 Jun 9.7 02:19:22 34° S 02:26:51 45° SSE 02:45:00 10° E visible
04 Jun 9.7 04:25:05 11° WSW 04:44:17 68° SSE 05:01:54 10° E visible
